Weather reports worldwide

Advertisment
Brize Norton, United Kingdom (3649): temperature & dewpoint: 20.05.2019 01:00:00 - 26.05.2019 01:00:00 (BST)Brize Norton, United Kingdom (3649): temperature -20cm & temperature -100cm: 20.05.2019 01:00:00 - 26.05.2019 01:00:00 (BST)Brize Norton, United Kingdom (3649): wind speed: 20.05.2019 01:00:00 - 26.05.2019 01:00:00 (BST)Brize Norton, United Kingdom (3649): wind direction: 20.05.2019 01:00:00 - 26.05.2019 01:00:00 (BST)Brize Norton, United Kingdom (3649): reduced air pressure: 20.05.2019 01:00:00 - 26.05.2019 01:00:00 (BST)Brize Norton, United Kingdom (3649): visibility: 20.05.2019 01:00:00 - 26.05.2019 01:00:00 (BST)Brize Norton, United Kingdom (3649): sunshine duration: 20.05.2019 01:00:00 - 26.05.2019 01:00:00 (BST)Brize Norton, United Kingdom (3649): precipitation: 20.05.2019 01:00:00 - 26.05.2019 01:00:00 (BST)
Date & Time tt [°C] td [°C] tt -20cm [°C] tt -100cm [°C] ff [km/h] ff [kn] dd ppp [hPa] vv [km] sd [min] rr [mm]
26.05.2019 01:00:00 13,5 11,0 - - 9 5 W 1017,1 10 - -
26.05.2019 00:00:00 15,5 11,0 - - 9 5 W 1017,6 10 0 0,0
25.05.2019 23:00:00 16,5 11,0 - - 9 5 W 1017,6 10 0 0,0
25.05.2019 22:00:00 17,6 11,6 - - 5 3 SW 1017,7 10 0 0,0
25.05.2019 21:00:00 18,3 11,3 - - 5 3 W 1017,5 10 0 0,0
25.05.2019 20:00:00 18,8 11,2 - - 9 5 W 1017,3 10 0 0,0
25.05.2019 19:00:00 19,8 11,0 - - 15 8 W 1017,4 10 0 0,0
25.05.2019 18:00:00 20,5 10,6 - - 15 8 W 1017,5 10 0 0,0
25.05.2019 17:00:00 20,7 9,7 - - 15 8 WNW 1017,6 10 6 0,0
25.05.2019 16:00:00 22,2 9,6 - - 13 7 WNW 1017,6 10 30 0,0
25.05.2019 15:00:00 21,6 7,6 - - 13 7 WNW 1017,9 10 42 0,0
25.05.2019 14:00:00 20,8 9,0 - - 13 7 NW 1018,3 10 24 0,0
25.05.2019 13:00:00 20,3 9,3 - - 13 7 NW 1018,5 10 48 0,0
25.05.2019 12:00:00 19,2 9,1 - - 16 9 NW 1018,9 50 36 0,0
25.05.2019 11:00:00 18,6 9,3 - - 9 5 WNW 1019,3 10 48 0,0
25.05.2019 10:00:00 17,5 10,6 14,2 12,7 11 6 NW 1019,7 10 36 0,0
25.05.2019 09:00:00 15,7 10,5 - - 8 4 W 1019,7 10 24 0,0
25.05.2019 08:00:00 13,8 10,4 - - 9 5 WNW 1019,7 10 0 0,0
25.05.2019 07:00:00 12,9 10,4 - - 5 3 WSW 1019,3 10 0 0,0
25.05.2019 06:00:00 12,7 9,9 - - 4 2 WSW 1019,1 10 0 0,0
25.05.2019 05:00:00 12,6 9,7 - - 4 2 WNW 1019,0 10 0 0,0
25.05.2019 04:00:00 13,1 9,6 - - 4 2 WSW 1019,0 10 0 0,0
25.05.2019 03:00:00 13,2 9,6 - - 5 3 NW 1019,1 10 0 0,0
25.05.2019 02:00:00 13,4 10,0 - - 8 4 NW 1019,0 10 0 0,0
25.05.2019 01:00:00 14,4 10,1 - - 9 5 NNW 1018,9 10 - 0,0
25.05.2019 00:00:00 15,2 10,6 - - 8 4 NW 1018,9 10 0 0,0
24.05.2019 23:00:00 15,6 10,7 - - 5 3 NW 1018,9 10 0 0,0
24.05.2019 22:00:00 15,9 10,3 - - 5 3 WNW 1018,5 10 0 0,0
24.05.2019 21:00:00 16,7 10,2 - - 11 6 NW 1018,2 10 0 0,0
24.05.2019 20:00:00 17,6 10,7 - - 11 6 NW 1017,8 10 0 0,0
24.05.2019 19:00:00 18,0 10,4 - - 15 8 NW 1017,5 10 24 0,0
24.05.2019 18:00:00 18,2 10,2 - - 13 7 WNW 1017,3 10 0 0,0
24.05.2019 17:00:00 20,3 10,3 - - 21 11 NW 1017,6 10 24 0,0
24.05.2019 16:00:00 19,3 9,8 - - 13 7 N 1017,6 10 0 0,0
24.05.2019 15:00:00 18,6 9,3 - - 18 10 NNW 1017,9 10 0 0,0
24.05.2019 14:00:00 20,0 8,8 - - 16 9 NW 1017,6 10 12 0,0
24.05.2019 13:00:00 19,8 7,8 - - 9 5 WNW 1017,8 10 30 0,0
24.05.2019 12:00:00 20,2 9,2 - - 11 6 N 1017,7 10 54 0,0
24.05.2019 11:00:00 18,8 8,2 - - 13 7 NW 1018,1 10 54 0,0
24.05.2019 10:00:00 17,4 8,9 14,0 12,4 11 6 NW 1018,3 10 60 0,0
24.05.2019 09:00:00 15,6 8,9 - - 8 4 NNW 1018,1 10 60 0,0
24.05.2019 08:00:00 12,9 8,7 - - 5 3 WNW 1018,0 10 54 0,0
24.05.2019 07:00:00 11,1 7,9 - - 5 3 W 1017,9 30 48 0,0
24.05.2019 06:00:00 9,7 7,1 - - 5 3 WSW 1017,8 10 0 0,0
24.05.2019 05:00:00 8,9 6,4 - - 8 4 W 1017,4 10 0 0,0
24.05.2019 04:00:00 9,6 6,5 - - 5 3 SW 1017,2 10 0 0,0
24.05.2019 03:00:00 10,2 6,6 - - 5 3 W 1016,8 10 0 0,0
24.05.2019 02:00:00 10,8 6,7 - - 5 3 NW 1016,5 10 0 0,0
24.05.2019 01:00:00 12,0 6,9 - - 9 5 NW 1016,4 10 - 0,0
24.05.2019 00:00:00 13,2 7,0 - - 11 6 NW 1016,0 10 0 0,0
23.05.2019 23:00:00 13,6 6,8 - - 8 4 W 1015,9 10 0 0,0
23.05.2019 22:00:00 15,1 7,4 - - 8 4 W 1015,8 10 0 0,0
23.05.2019 21:00:00 17,8 6,5 - - 9 5 W 1015,2 10 24 0,0
23.05.2019 20:00:00 19,4 5,4 - - 9 5 WNW 1014,6 10 54 0,0
23.05.2019 19:00:00 20,3 7,5 - - 11 6 WNW 1014,3 10 30 0,0
23.05.2019 18:00:00 21,7 6,4 - - 9 5 W 1014,3 10 60 0,0
23.05.2019 17:00:00 21,5 5,3 - - 8 4 SW 1014,4 10 48 0,0
23.05.2019 16:00:00 21,7 4,8 - - 13 7 WSW 1014,6 10 54 0,0
23.05.2019 15:00:00 20,9 5,2 - - 9 5 SW 1015,0 10 42 0,0
23.05.2019 14:00:00 21,1 5,5 - - 8 4 SW 1015,4 10 54 0,0
23.05.2019 13:00:00 19,8 5,5 - - 5 3 SW 1015,8 10 60 0,0
23.05.2019 12:00:00 19,1 6,2 - - 5 3 SSW 1016,3 10 60 0,0
23.05.2019 11:00:00 17,8 6,1 - - 8 4 SW 1016,7 10 60 0,0
23.05.2019 10:00:00 15,9 8,1 13,7 12,2 5 3 SSW 1017,1 10 60 0,0
23.05.2019 09:00:00 13,3 8,4 - - 5 3 W 1017,3 10 60 0,0
23.05.2019 08:00:00 11,0 7,2 - - 5 3 WSW 1017,6 10 54 0,0
23.05.2019 07:00:00 9,9 6,7 - - 4 2 SW 1017,5 10 24 0,0
23.05.2019 06:00:00 8,1 5,3 - - 2 1 WNW 1017,4 10 0 0,0
23.05.2019 05:00:00 8,3 5,6 - - 4 2 WNW 1017,5 10 0 0,0
23.05.2019 04:00:00 9,1 5,9 - - 4 2 WNW 1017,6 10 0 0,0
23.05.2019 03:00:00 10,2 6,1 - - 5 3 WSW 1017,9 10 0 0,0
23.05.2019 02:00:00 10,4 5,6 - - 5 3 W 1018,1 10 0 0,0
23.05.2019 01:00:00 12,0 6,2 - - 5 3 WNW 1018,1 10 - 0,0
23.05.2019 00:00:00 13,4 6,3 - - 5 3 WSW 1018,2 50 0 0,0
22.05.2019 23:00:00 14,9 6,9 - - 4 2 WSW 1018,1 10 0 0,0
22.05.2019 22:00:00 16,1 6,3 - - 4 2 SW 1018,0 10 0 0,0
22.05.2019 21:00:00 16,9 5,8 - - 2 1 W 1017,9 10 12 0,0
22.05.2019 20:00:00 18,2 5,2 - - 4 2 W 1017,6 10 24 0,0
22.05.2019 19:00:00 19,7 3,5 - - 9 5 W 1017,7 10 60 0,0
22.05.2019 18:00:00 19,4 3,3 - - 11 6 W 1018,0 10 60 0,0
22.05.2019 17:00:00 20,4 4,6 - - 11 6 WSW 1018,2 10 60 0,0
22.05.2019 16:00:00 19,6 2,2 - - 13 7 WSW 1018,6 10 60 0,0
22.05.2019 15:00:00 19,5 3,1 - - 9 5 W 1018,9 10 60 0,0
22.05.2019 14:00:00 18,9 2,4 - - 9 5 SSW 1019,5 10 60 0,0
22.05.2019 13:00:00 18,1 4,1 - - 13 7 SW 1019,8 10 36 0,0
22.05.2019 12:00:00 17,9 4,0 - - 9 5 WSW 1020,0 10 54 0,0
22.05.2019 11:00:00 16,7 4,7 - - 4 2 SSW 1020,3 10 60 0,0
22.05.2019 10:00:00 15,0 3,7 13,5 12,2 8 4 S 1020,5 10 60 0,0
22.05.2019 09:00:00 14,2 4,0 - - 5 3 S 1020,8 40 60 0,0
22.05.2019 08:00:00 13,0 4,1 - - 4 2 WSW 1020,6 10 36 0,0
22.05.2019 07:00:00 10,3 4,3 - - 2 1 NW 1020,6 10 0 0,0
22.05.2019 06:00:00 8,4 3,9 - - 2 1 NW 1020,5 10 0 0,0
22.05.2019 05:00:00 8,2 3,2 - - 5 3 W 1020,6 10 0 0,0
22.05.2019 04:00:00 9,6 2,9 - - 2 1 NNW 1020,7 50 0 0,0
22.05.2019 03:00:00 10,8 2,8 - - 2 1 S 1020,7 10 0 0,0
22.05.2019 02:00:00 11,6 3,5 - - 5 3 NW 1020,6 10 0 0,0
22.05.2019 01:00:00 12,3 4,8 - - 2 1 WSW 1020,4 10 - 0,0
22.05.2019 00:00:00 12,6 4,5 - - 2 1 WSW 1020,3 10 0 0,0
21.05.2019 23:00:00 12,2 4,5 - - 8 4 NNE 1020,3 10 0 0,0
21.05.2019 22:00:00 14,0 5,7 - - 18 10 NNE 1020,1 10 0 0,0
21.05.2019 21:00:00 15,2 5,5 - - 8 4 N 1019,5 10 18 0,0
21.05.2019 20:00:00 17,2 4,9 - - 11 6 NNW 1019,1 10 60 0,0
21.05.2019 19:00:00 18,4 4,7 - - 9 5 NW 1019,0 10 60 0,0
21.05.2019 18:00:00 18,5 4,7 - - 11 6 NW 1019,0 10 48 0,0
21.05.2019 17:00:00 18,5 4,5 - - 18 10 N 1019,1 10 54 0,0
21.05.2019 16:00:00 19,2 6,1 - - 18 10 NNW 1019,1 10 54 0,0
21.05.2019 15:00:00 18,9 6,3 - - 15 8 NW 1019,0 10 60 0,0
21.05.2019 14:00:00 18,4 6,2 - - 21 11 NNW 1019,1 10 54 0,0
21.05.2019 13:00:00 17,2 5,9 - - 13 7 NNW 1019,2 10 48 0,0
21.05.2019 12:00:00 17,1 6,1 - - 13 7 N 1019,1 10 60 0,0
21.05.2019 11:00:00 16,1 6,3 - - 16 9 N 1019,1 10 60 0,0
21.05.2019 10:00:00 15,1 6,6 13,2 12,0 21 11 N 1019,2 10 60 0,0
21.05.2019 09:00:00 13,6 6,2 - - 15 8 NNW 1018,9 10 60 0,0
21.05.2019 08:00:00 11,4 6,7 - - 9 5 NNW 1018,8 10 60 0,0
21.05.2019 07:00:00 10,0 6,6 - - 2 1 SW 1018,4 10 60 0,0
21.05.2019 06:00:00 8,9 6,3 - - 8 4 W 1018,2 10 0 0,0
21.05.2019 05:00:00 8,6 5,6 - - 5 3 W 1018,0 10 0 0,0
21.05.2019 04:00:00 9,5 6,0 - - 8 4 NNE 1017,6 10 0 0,0
21.05.2019 03:00:00 9,8 5,8 - - 8 4 NNW 1017,2 10 0 0,0
21.05.2019 02:00:00 11,3 6,5 - - 11 6 NNW 1016,7 10 0 0,0
21.05.2019 01:00:00 12,4 7,0 - - 11 6 N 1016,4 10 - 0,0
21.05.2019 00:00:00 12,9 6,4 - - 18 10 N 1016,2 10 0 0,0
20.05.2019 23:00:00 13,4 8,2 - - 18 10 N 1016,1 10 0 0,0
20.05.2019 22:00:00 13,3 7,7 - - 15 8 NNW 1015,8 10 0 0,0
20.05.2019 21:00:00 15,1 7,4 - - 8 4 NW 1014,9 10 0 0,0
20.05.2019 20:00:00 17,1 7,0 - - 9 5 N 1014,1 10 54 0,0
20.05.2019 19:00:00 18,2 6,1 - - 9 5 NW 1013,7 10 60 0,0
20.05.2019 18:00:00 19,2 6,8 - - 8 4 W 1013,5 10 54 0,0
20.05.2019 17:00:00 18,7 6,3 - - 11 6 NW 1013,5 10 24 0,0
20.05.2019 16:00:00 18,5 6,8 - - 11 6 N 1013,6 10 6 0,0
20.05.2019 15:00:00 18,5 6,5 - - 11 6 NW 1013,5 10 48 0,0
20.05.2019 14:00:00 18,8 8,0 - - 11 6 N 1013,6 10 54 0,0
20.05.2019 13:00:00 17,3 8,6 - - 9 5 NNW 1013,7 30 54 0,0
20.05.2019 12:00:00 15,7 8,1 - - 15 8 NNW 1013,6 10 60 0,0
20.05.2019 11:00:00 15,5 9,5 - - 15 8 NNW 1013,6 10 54 0,0
20.05.2019 10:00:00 14,1 8,8 12,7 12,0 15 8 N 1013,4 10 0 0,0
20.05.2019 09:00:00 12,7 8,7 - - 9 5 N 1013,2 10 24 0,0
20.05.2019 08:00:00 12,0 8,6 - - 13 7 N 1012,9 10 12 0,0
20.05.2019 07:00:00 10,8 8,0 - - 13 7 N 1012,5 10 0 0,0
20.05.2019 06:00:00 10,5 7,9 - - 15 8 NNW 1012,1 5 0 0,0
20.05.2019 05:00:00 10,7 7,8 - - 16 9 N 1012,0 4,5 0 0,0
20.05.2019 04:00:00 11,0 8,1 - - 9 5 N 1011,7 10 0 0,0
20.05.2019 03:00:00 11,0 8,0 - - 13 7 N 1011,7 10 0 0,0
20.05.2019 02:00:00 11,2 8,2 - - 13 7 N 1011,8 10 0 0,0
20.05.2019 01:00:00 11,6 8,8 - - 15 8 N 1011,9 10 - 0,0

tt = temperature
td = dewpoint
tt -20cm = temperature -20cm
tt -100cm = temperature -100cm
ff = wind speed
dd = wind direction
ppp = reduced air pressure
vv = visibility
sd = sunshine duration
rr = precipitation

Next stations